TimePST,TemperatureF,Dew PointF,Humidity,Sea Level PressureIn,VisibilityMPH,Wind Direction,Wind SpeedMPH,Gust SpeedMPH,PrecipitationIn,Events,Conditions,WindDirDegrees,DateUTC
12:53 AM,41.0,37.9,89,30.06,10.0,Calm,Calm,-,N/A,,Overcast,0,2012-11-16 08:53:00
1:53 AM,41.0,37.9,89,30.05,10.0,Calm,Calm,-,N/A,,Overcast,0,2012-11-16 09:53:00
2:53 AM,39.9,37.9,93,30.03,10.0,Calm,Calm,-,N/A,,Overcast,0,2012-11-16 10:53:00
3:53 AM,39.9,37.9,93,30.02,10.0,Calm,Calm,-,N/A,,Overcast,0,2012-11-16 11:53:00
4:53 AM,39.0,37.9,96,30.02,9.0,NNW,3.5,-,N/A,,Overcast,330,2012-11-16 12:53:00
5:22 AM,39.2,37.4,93,30.01,9.0,North,3.5,-,N/A,,Scattered Clouds,360,2012-11-16 13:22:00
5:53 AM,37.9,37.0,97,30.01,7.0,North,3.5,-,N/A,,Clear,360,2012-11-16 13:53:00
6:53 AM,37.9,37.0,97,30.03,8.0,Calm,Calm,-,N/A,,Clear,0,2012-11-16 14:53:00
7:29 AM,37.4,37.4,100,30.03,8.0,Calm,Calm,-,N/A,,Overcast,0,2012-11-16 15:29:00
7:53 AM,39.9,37.9,93,30.04,7.0,Calm,Calm,-,N/A,,Overcast,0,2012-11-16 15:53:00
8:53 AM,41.0,37.9,89,30.04,10.0,Calm,Calm,-,N/A,,Overcast,0,2012-11-16 16:53:00
9:53 AM,43.0,37.0,80,30.04,10.0,Calm,Calm,-,N/A,,Overcast,0,2012-11-16 17:53:00
10:48 AM,44.6,35.6,71,30.03,10.0,Calm,Calm,-,N/A,,Scattered Clouds,0,2012-11-16 18:48:00
10:53 AM,44.1,36.0,73,30.03,10.0,Calm,Calm,-,N/A,,Mostly Cloudy,0,2012-11-16 18:53:00
11:53 AM,44.1,36.0,73,30.02,10.0,Calm,Calm,-,N/A,,Mostly Cloudy,0,2012-11-16 19:53:00
12:53 PM,45.0,37.0,74,29.99,10.0,ESE,3.5,-,N/A,,Overcast,120,2012-11-16 20:53:00
1:53 PM,46.0,37.0,71,29.99,10.0,NNE,4.6,-,N/A,,Overcast,30,2012-11-16 21:53:00
2:53 PM,45.0,37.0,74,29.99,10.0,ENE,3.5,-,N/A,,Overcast,70,2012-11-16 22:53:00
3:53 PM,44.1,37.0,76,29.99,10.0,East,5.8,-,N/A,,Mostly Cloudy,90,2012-11-16 23:53:00
4:53 PM,42.1,37.0,82,29.99,7.0,ESE,3.5,-,N/A,,Mostly Cloudy,110,2012-11-17 00:53:00
5:53 PM,43.0,37.9,82,29.98,7.0,ESE,4.6,-,N/A,,Mostly Cloudy,120,2012-11-17 01:53:00
6:53 PM,44.1,37.9,79,29.98,7.0,SE,3.5,-,N/A,,Overcast,140,2012-11-17 02:53:00
7:53 PM,43.0,37.9,82,29.97,10.0,Calm,Calm,-,N/A,,Overcast,0,2012-11-17 03:53:00
8:53 PM,42.1,39.0,89,29.97,8.0,Calm,Calm,-,N/A,,Overcast,0,2012-11-17 04:53:00
9:53 PM,42.1,39.0,89,29.96,8.0,Calm,Calm,-,N/A,,Overcast,0,2012-11-17 05:53:00
10:53 PM,42.1,39.0,89,29.96,9.0,NNW,3.5,-,N/A,,Overcast,340,2012-11-17 06:53:00
11:53 PM,42.1,39.0,89,29.94,9.0,Calm,Calm,-,N/A,,Overcast,0,2012-11-17 07:53:00